Hourly Weather Adolfo Ruiz Cortines

Today, 7 March, Sunday

Time Temperature Precipitation Wind Pressure Humidity
00:00 +19°C° 0 mm 1 mps 730 mmHg 34%
01:00 +18°C° 0 mm 1 mps 730 mmHg 35%
02:00 +16°C° 0 mm 1 mps 730 mmHg 36%
03:00 +16°C° 0 mm 1 mps 731 mmHg 37%
04:00 +16°C° 0 mm 1 mps 731 mmHg 37%
05:00 +15°C° 0 mm 1 mps 731 mmHg 38%
06:00 +18°C° 0 mm 1 mps 731 mmHg 35%
07:00 +19°C° 0 mm 1 mps 732 mmHg 32%
08:00 +21°C° 0 mm 1 mps 733 mmHg 30%
09:00 +24°C° 0 mm 1 mps 733 mmHg 25%
10:00 +27°C° 0 mm 2 mps 734 mmHg 20%
11:00 +30°C° 0 mm 2 mps 734 mmHg 16%
12:00 +31°C° 0 mm 3 mps 734 mmHg 14%
13:00 +33°C° 0 mm 3 mps 733 mmHg 12%
14:00 +34°C° 0 mm 4 mps 733 mmHg 10%
15:00 +33°C° 0 mm 4 mps 733 mmHg 11%
16:00 +32°C° 0 mm 4 mps 733 mmHg 12%
17:00 +30°C° 0 mm 4 mps 733 mmHg 13%
18:00 +26°C° 0 mm 3 mps 733 mmHg 18%
19:00 +23°C° 0 mm 1 mps 734 mmHg 22%
20:00 +18°C° 0 mm 0 mps 734 mmHg 27%
21:00 +18°C° 0 mm 0 mps 734 mmHg 27%
22:00 +19°C° 0 mm 1 mps 734 mmHg 28%
23:00 +19°C° 0 mm 1 mps 734 mmHg 28%

Tomorrow, 8 March, Monday

Time Temperature Precipitation Wind Pressure Humidity
00:00 +18°C° 0 mm 1 mps 734 mmHg 28%
01:00 +18°C° 0 mm 1 mps 734 mmHg 28%
02:00 +18°C° 0 mm 1 mps 734 mmHg 28%
03:00 +16°C° 0 mm 1 mps 734 mmHg 29%
04:00 +16°C° 0 mm 1 mps 733 mmHg 29%
05:00 +16°C° 0 mm 1 mps 733 mmHg 30%
06:00 +18°C° 0 mm 1 mps 734 mmHg 28%
07:00 +20°C° 0 mm 1 mps 734 mmHg 26%
08:00 +21°C° 0 mm 1 mps 735 mmHg 24%
09:00 +25°C° 0 mm 1 mps 735 mmHg 20%
10:00 +29°C° 0 mm 1 mps 736 mmHg 16%
11:00 +31°C° 0 mm 0 mps 736 mmHg 12%
12:00 +33°C° 0 mm 1 mps 735 mmHg 11%
13:00 +35°C° 0 mm 2 mps 735 mmHg 11%
14:00 +35°C° 0 mm 3 mps 735 mmHg 10%
15:00 +34°C° 0 mm 3 mps 734 mmHg 12%
16:00 +33°C° 0 mm 4 mps 734 mmHg 13%
17:00 +32°C° 0 mm 4 mps 734 mmHg 15%
18:00 +28°C° 0 mm 3 mps 734 mmHg 18%
19:00 +25°C° 0 mm 2 mps 734 mmHg 21%
20:00 +22°C° 0 mm 1 mps 734 mmHg 25%
21:00 +22°C° 0 mm 1 mps 735 mmHg 25%
22:00 +21°C° 0 mm 1 mps 735 mmHg 26%
23:00 +20°C° 0 mm 1 mps 735 mmHg 27%

Day after tomorrow, 9 March, Tuesday

Time Temperature Precipitation Wind Pressure Humidity
00:00 +20°C° 0 mm 1 mps 735 mmHg 28%
01:00 +20°C° 0 mm 1 mps 734 mmHg 28%
02:00 +20°C° 0 mm 1 mps 734 mmHg 29%
03:00 +19°C° 0 mm 1 mps 734 mmHg 30%
04:00 +19°C° 0 mm 1 mps 733 mmHg 30%
05:00 +18°C° 0 mm 1 mps 733 mmHg 31%
06:00 +19°C° 0 mm 1 mps 733 mmHg 29%
07:00 +21°C° 0 mm 1 mps 734 mmHg 27%
08:00 +22°C° 0 mm 1 mps 734 mmHg 25%
09:00 +25°C° 0 mm 1 mps 735 mmHg 21%
10:00 +29°C° 0 mm 1 mps 735 mmHg 17%
11:00 +32°C° 0 mm 1 mps 735 mmHg 13%
12:00 +32°C° 0 mm 2 mps 734 mmHg 11%
13:00 +34°C° 0 mm 2 mps 734 mmHg 10%
14:00 +35°C° 0 mm 3 mps 734 mmHg 9%
15:00 +34°C° 0 mm 3 mps 733 mmHg 10%
16:00 +33°C° 0 mm 3 mps 733 mmHg 10%
17:00 +33°C° 0 mm 3 mps 733 mmHg 11%
18:00 +29°C° 0 mm 2 mps 733 mmHg 16%
19:00 +26°C° 0 mm 1 mps 734 mmHg 20%
20:00 +23°C° 0 mm 1 mps 734 mmHg 24%
21:00 +23°C° 0 mm 1 mps 734 mmHg 25%
22:00 +22°C° 0 mm 1 mps 734 mmHg 26%
23:00 +19°C° 0 mm 0 mps 734 mmHg 27%

10 March, Wednesday

Time Temperature Precipitation Wind Pressure Humidity
00:00 +21°C° 0 mm 1 mps 733 mmHg 27%
01:00 +20°C° 0 mm 1 mps 733 mmHg 27%
02:00 +20°C° 0 mm 1 mps 732 mmHg 27%
03:00 +19°C° 0 mm 1 mps 732 mmHg 27%
04:00 +19°C° 0 mm 1 mps 732 mmHg 26%
05:00 +19°C° 0 mm 1 mps 731 mmHg 25%
06:00 +20°C° 0 mm 1 mps 732 mmHg 24%
07:00 +22°C° 0 mm 1 mps 732 mmHg 22%
08:00 +23°C° 0 mm 1 mps 732 mmHg 20%
09:00 +26°C° 0 mm 1 mps 732 mmHg 18%
10:00 +29°C° 0 mm 1 mps 733 mmHg 15%
11:00 +32°C° 0 mm 2 mps 733 mmHg 13%
12:00 +33°C° 0 mm 3 mps 732 mmHg 14%
13:00 +33°C° 0 mm 4 mps 732 mmHg 14%
14:00 +34°C° 0 mm 4 mps 732 mmHg 15%
15:00 +33°C° 0 mm 4 mps 732 mmHg 15%
16:00 +30°C° 0 mm 5 mps 731 mmHg 16%
17:00 +29°C° 0 mm 5 mps 731 mmHg 17%
18:00 +27°C° 0 mm 3 mps 732 mmHg 19%
19:00 +25°C° 0 mm 2 mps 732 mmHg 22%
20:00 +23°C° 0 mm 1 mps 732 mmHg 24%
21:00 +22°C° 0 mm 1 mps 732 mmHg 25%
22:00 +21°C° 0 mm 1 mps 732 mmHg 27%
23:00 +21°C° 0 mm 1 mps 732 mmHg 28%

11 March, Thursday

Time Temperature Precipitation Wind Pressure Humidity
00:00 +20°C° 0 mm 1 mps 731 mmHg 28%
01:00 +18°C° 0 mm 0 mps 731 mmHg 28%
02:00 +17°C° 0 mm 0 mps 731 mmHg 27%
03:00 +17°C° 0 mm 0 mps 730 mmHg 28%
04:00 +16°C° 0 mm 0 mps 730 mmHg 29%
05:00 +16°C° 0 mm 0 mps 730 mmHg 30%
06:00 +16°C° 0 mm 0 mps 731 mmHg 28%
07:00 +17°C° 0 mm 0 mps 731 mmHg 27%
08:00 +18°C° 0 mm 0 mps 731 mmHg 26%
09:00 +22°C° 0 mm 1 mps 732 mmHg 22%
10:00 +24°C° 0 mm 2 mps 732 mmHg 19%
11:00 +26°C° 0 mm 2 mps 732 mmHg 15%
12:00 +26°C° 0 mm 3 mps 732 mmHg 14%
13:00 +27°C° 0 mm 4 mps 732 mmHg 14%
14:00 +27°C° 0 mm 4 mps 732 mmHg 13%
15:00 +26°C° 0 mm 4 mps 732 mmHg 15%
16:00 +25°C° 0 mm 4 mps 732 mmHg 16%
17:00 +23°C° 0 mm 4 mps 731 mmHg 18%
18:00 +21°C° 0 mm 3 mps 732 mmHg 22%
19:00 +20°C° 0 mm 2 mps 732 mmHg 26%
20:00 +19°C° 0 mm 1 mps 732 mmHg 30%
21:00 +18°C° 0 mm 1 mps 732 mmHg 32%
22:00 +16°C° 0 mm 1 mps 732 mmHg 33%
23:00 +16°C° 0 mm 1 mps 733 mmHg 35%

12 March, Friday

Time Temperature Precipitation Wind Pressure Humidity
00:00 +15°C° 0 mm 1 mps 732 mmHg 37%
01:00 +14°C° 0 mm 1 mps 732 mmHg 39%
02:00 +13°C° 0 mm 1 mps 732 mmHg 42%
03:00 +12°C° 0 mm 1 mps 732 mmHg 44%
04:00 +12°C° 0 mm 1 mps 732 mmHg 47%
05:00 +11°C° 0 mm 1 mps 733 mmHg 49%
06:00 +12°C° 0 mm 1 mps 733 mmHg 46%
07:00 +13°C° 0 mm 1 mps 734 mmHg 44%
08:00 +14°C° 0 mm 1 mps 734 mmHg 41%
09:00 +16°C° 0 mm 2 mps 734 mmHg 35%
10:00 +18°C° 0 mm 2 mps 735 mmHg 29%
11:00 +20°C° 0 mm 3 mps 735 mmHg 23%
12:00 +21°C° 0 mm 3 mps 735 mmHg 20%
13:00 +22°C° 0 mm 3 mps 734 mmHg 17%
14:00 +23°C° 0 mm 4 mps 734 mmHg 14%
15:00 +23°C° 0 mm 4 mps 734 mmHg 14%
16:00 +22°C° 0 mm 4 mps 734 mmHg 14%
17:00 +22°C° 0 mm 4 mps 733 mmHg 14%
18:00 +19°C° 0 mm 3 mps 734 mmHg 19%
19:00 +16°C° 0 mm 3 mps 734 mmHg 24%
20:00 +14°C° 0 mm 2 mps 734 mmHg 30%
21:00 +13°C° 0 mm 1 mps 735 mmHg 33%
22:00 +12°C° 0 mm 1 mps 735 mmHg 36%
23:00 +11°C° 0 mm 1 mps 735 mmHg 40%
Show more